| time (UTC) | temp C | wind direction | speed KPH | gust KPH | rain 1hr cm | rain 24hr cm | rain mn cm | humidity % | barometer mb |
| 20260906031540 | 23 | 0.0 | 0.0 | 0.00 | 0.03 | 0.03 | 87 | 1013.6 | |
| 20260906030026 | 23 | 0.0 | 0.0 | 0.00 | 0.03 | 0.03 | 87 | 1013.4 | |
| 20260906024528 | 23 | 0.0 | 0.0 | 0.00 | 0.03 | 0.03 | 86 | 1013.4 | |
| 20260906023028 | 23 | 0.0 | 0.0 | 0.00 | 0.03 | 0.03 | 86 | 1013.5 | |
| 20260906021528 | 23 | 0.0 | 0.0 | 0.00 | 0.03 | 0.03 | 86 | 1013.2 | |
| 20260906020032 | 23 | 0.0 | 0.0 | 0.00 | 0.03 | 0.03 | 85 | 1012.9 | |
| 20260906014531 | 23 | 0.0 | 0.0 | 0.00 | 0.03 | 0.03 | 84 | 1012.9 | |
| 20260906013003 | 24 | 0.0 | 0.0 | 0.00 | 0.03 | 0.03 | 84 | 1013.0 | |
| 20260906011510 | 24 | 0.0 | 0.0 | 0.00 | 0.03 | 0.03 | 83 | 1012.8 | |
| 20260906010005 | 25 | 0.0 | 0.0 | 0.00 | 0.03 | 0.03 | 82 | 1012.5 | |
| 20260906004512 | 25 | 0.0 | 0.0 | 0.00 | 0.03 | 0.03 | 82 | 1012.4 | |
| 20260906003023 | 25 | 0.0 | 0.0 | 0.00 | 0.03 | 0.03 | 81 | 1012.4 | |
| 20260906001526 | 26 | 0.0 | 0.0 | 0.00 | 0.03 | 0.03 | 80 | 1012.5 | |
| 20260906000006 | 26 | 0.0 | 0.0 | 0.00 | 0.03 | 0.03 | 79 | 1012.4 | |
| 20260905234511 | 27 | 0.0 | 0.0 | 0.00 | 0.03 | 0.03 | 79 | 1012.3 | |
| 20260905233018 | 27 | 0.0 | 0.0 | 0.00 | 0.03 | 0.03 | 79 | 1012.2 | |
| 20260905231520 | 27 | 0.0 | 0.0 | 0.00 | 0.03 | 0.03 | 79 | 1012.0 | |
| 20260905230004 | 27 | 0.0 | 0.0 | 0.00 | 0.03 | 0.03 | 78 | 1012.0 | |
| 20260905224531 | 28 | 0.0 | 0.0 | 0.00 | 0.03 | 0.03 | 79 | 1012.0 | |
| 20260905223037 | 27 | 0.0 | 0.0 | 0.00 | 0.03 | 0.03 | 79 | 1011.9 | |
| 20260905221543 | 27 | 0.0 | 0.0 | 0.00 | 0.03 | 0.03 | 79 | 1011.9 | |
| 20260905220029 | 27 | 0.0 | 0.0 | 0.00 | 0.03 | 0.03 | 79 | 1011.9 | |
| 20260905214505 | 27 | 0.0 | 0.0 | 0.00 | 0.03 | 0.03 | 79 | 1012.3 | |
| 20260905213011 | 27 | 0.0 | 0.0 | 0.00 | 0.03 | 0.03 | 79 | 1012.5 | |
| 20260905211534 | 26 | 0.0 | 0.0 | 0.00 | 0.03 | 0.03 | 79 | 1012.6 | |
| 20260905210025 | 26 | 0.0 | 0.0 | 0.00 | 0.03 | 0.03 | 79 | 1012.7 | |
| 20260905204533 | 26 | 0.0 | 0.0 | 0.00 | 0.03 | 0.03 | 79 | 1012.8 | |
| 20260905203008 | 25 | 0.0 | 0.0 | 0.00 | 0.03 | 0.03 | 78 | 1013.4 | |
| 20260905201512 | 25 | 0.0 | 0.0 | 0.03 | 0.03 | 0.03 | 78 | 1013.8 | |
| 20260905200021 | 25 | 0.0 | 0.0 | 0.03 | 0.03 | 0.03 | 78 | 1013.5 | |
| 20260905194525 | 24 | 0.0 | 0.0 | 0.03 | 0.03 | 0.03 | 76 | 1012.7 | |
| 20260905193028 | 24 | 0.0 | 0.0 | 0.03 | 0.03 | 0.03 | 73 | 1013.1 | |
| 20260905191509 | 25 | 0.0 | 0.0 | 0.00 | 0.00 | 0.00 | 69 | 1013.5 | |
| 20260905190018 | 28 | 0.0 | 0.0 | 0.00 | 0.00 | 0.00 | 63 | 1013.5 | |
| 20260905184532 | 32 | 0.0 | 0.0 | 0.00 | 0.00 | 0.00 | 61 | 1013.5 | |
| 20260905183028 | 33 | 0.0 | 0.0 | 0.00 | 0.00 | 0.00 | 60 | 1013.2 | |
| 20260905181510 | 34 | 0.0 | 0.0 | 0.00 | 0.00 | 0.00 | 59 | 1012.4 | |
| 20260905180014 | 34 | 0.0 | 0.0 | 0.00 | 0.00 | 0.00 | 60 | 1012.9 | |
| 20260905174521 | 34 | 0.0 | 0.0 | 0.00 | 0.00 | 0.00 | 62 | 1013.0 | |
| 20260905173025 | 34 | 0.0 | 0.0 | 0.00 | 0.00 | 0.00 | 65 | 1013.4 | |
| 20260905171544 | 33 | 0.0 | 0.0 | 0.00 | 0.00 | 0.00 | 67 | 1013.6 | |
| 20260905170012 | 33 | 0.0 | 0.0 | 0.00 | 0.00 | 0.00 | 70 | 1013.7 | |
| 20260905164539 | 33 | 0.0 | 0.0 | 0.00 | 0.00 | 0.00 | 73 | 1013.9 | |
| 20260905163034 | 32 | 0.0 | 0.0 | 0.00 | 0.00 | 0.00 | 75 | 1014.2 | |
| 20260905161538 | 32 | 0.0 | 0.0 | 0.00 | 0.00 | 0.00 | 78 | 1014.3 | |
| 20260905160025 | 31 | 0.0 | 0.0 | 0.00 | 0.00 | 0.00 | 80 | 1014.4 | |
| 20260905154530 | 31 | 0.0 | 0.0 | 0.00 | 0.00 | 0.00 | 82 | 1014.4 | |
| 20260905153025 | 31 | 0.0 | 0.0 | 0.00 | 0.00 | 0.00 | 83 | 1014.7 | |
| 20260905151537 | 30 | 0.0 | 0.0 | 0.00 | 0.00 | 0.00 | 84 | 1014.6 | |
| 20260905150031 | 30 | 0.0 | 0.0 | 0.00 | 0.00 | 0.00 | 86 | 1014.6 | |
| 20260905144539 | 29 | 0.0 | 0.0 | 0.00 | 0.00 | 0.00 | 86 | 1014.5 | |
| 20260905143020 | 28 | 0.0 | 0.0 | 0.00 | 0.00 | 0.00 | 87 | 1014.6 | |
| 20260905141534 | 28 | 0.0 | 0.0 | 0.00 | 0.00 | 0.00 | 88 | 1014.6 | |
| 20260905140035 | 28 | 0.0 | 0.0 | 0.00 | 0.00 | 0.00 | 89 | 1014.7 | |
| 20260905134511 | 27 | 0.0 | 0.0 | 0.00 | 0.00 | 0.00 | 90 | 1014.9 | |
| 20260905133014 | 26 | 0.0 | 0.0 | 0.00 | 0.00 | 0.00 | 90 | 1015.0 | |
| 20260905131532 | 26 | 0.0 | 0.0 | 0.00 | 0.00 | 0.00 | 91 | 1015.0 | |
| 20260905130029 | 25 | 0.0 | 0.0 | 0.00 | 0.00 | 0.00 | 91 | 1015.1 | |
| 20260905124540 | 25 | 0.0 | 0.0 | 0.00 | 0.00 | 0.00 | 91 | 1015.0 | |
| 20260905123014 | 24 | 0.0 | 0.0 | 0.00 | 0.00 | 0.00 | 92 | 1014.9 | |
| 20260905121519 | 23 | 0.0 | 0.0 | 0.00 | 0.00 | 0.00 | 92 | 1014.9 | |
| 20260905120031 | 22 | 0.0 | 0.0 | 0.00 | 0.00 | 0.00 | 92 | 1014.8 | |
| 20260905114531 | 22 | 0.0 | 0.0 | 0.00 | 0.00 | 0.00 | 91 | 1014.5 | |
| 20260905113035 | 22 | 0.0 | 0.0 | 0.00 | 0.00 | 0.00 | 91 | 1014.4 | |
| 20260905111518 | 22 | 0.0 | 0.0 | 0.00 | 0.00 | 0.00 | 91 | 1014.3 | |
| 20260905110025 | 22 | 0.0 | 0.0 | 0.00 | 0.00 | 0.00 | 91 | 1014.0 | |
| 20260905104535 | 22 | 0.0 | 0.0 | 0.00 | 0.00 | 0.00 | 91 | 1013.8 | |
| 20260905103035 | 22 | 0.0 | 0.0 | 0.00 | 0.00 | 0.00 | 91 | 1013.7 | |
| 20260905101530 | 22 | 0.0 | 0.0 | 0.00 | 0.00 | 0.00 | 91 | 1013.7 | |
| 20260905100022 | 22 | 0.0 | 0.0 | 0.00 | 0.00 | 0.00 | 91 | 1013.6 | |
| 20260905094527 | 22 | 0.0 | 0.0 | 0.00 | 0.00 | 0.00 | 90 | 1013.6 | |
| 20260905093032 | 22 | 0.0 | 0.0 | 0.00 | 0.00 | 0.00 | 90 | 1013.7 | |
| 20260905091534 | 22 | 0.0 | 0.0 | 0.00 | 0.00 | 0.00 | 90 | 1013.8 | |
| 20260905090034 | 23 | 0.0 | 0.0 | 0.00 | 0.00 | 0.00 | 90 | 1013.7 | |
| 20260905084535 | 23 | 0.0 | 0.0 | 0.00 | 0.00 | 0.00 | 90 | 1013.8 | |
| 20260905083031 | 23 | 0.0 | 0.0 | 0.00 | 0.00 | 0.00 | 90 | 1013.9 | |
| 20260905081532 | 23 | 0.0 | 0.0 | 0.00 | 0.00 | 0.00 | 89 | 1014.1 | |
| 20260905080048 | 23 | 0.0 | 0.0 | 0.00 | 0.00 | 0.00 | 89 | 1014.2 | |
| 20260905074520 | 23 | 0.0 | 0.0 | 0.00 | 0.00 | 0.00 | 89 | 1014.3 | |
| 20260905073042 | 23 | 0.0 | 0.0 | 0.00 | 0.00 | 0.00 | 89 | 1014.3 | |
| 20260905071531 | 23 | 0.0 | 0.0 | 0.00 | 0.00 | 0.00 | 89 | 1014.5 | |
| 20260905070012 | 23 | 0.0 | 0.0 | 0.00 | 0.00 | 0.00 | 89 | 1014.6 | |
| 20260905064518 | 23 | 0.0 | 0.0 | 0.00 | 0.00 | 0.00 | 89 | 1014.8 | |
| 20260905063027 | 23 | 0.0 | 0.0 | 0.00 | 0.00 | 0.00 | 88 | 1014.9 | |
| 20260905061549 | 24 | 0.0 | 0.0 | 0.00 | 0.00 | 0.00 | 88 | 1014.9 | |
| 20260905060031 | 24 | 0.0 | 0.0 | 0.00 | 0.00 | 0.00 | 88 | 1015.1 | |
| 20260905054517 | 24 | 0.0 | 0.0 | 0.00 | 0.00 | 0.00 | 88 | 1015.1 | |
| 20260905053023 | 24 | 0.0 | 0.0 | 0.00 | 0.00 | 0.00 | 87 | 1015.2 | |
| 20260905051540 | 25 | 0.0 | 0.0 | 0.00 | 0.00 | 0.00 | 87 | 1015.3 | |
| 20260905050030 | 25 | 0.0 | 0.0 | 0.00 | 0.00 | 0.00 | 87 | 1015.2 | |
| 20260905044534 | 25 | 0.0 | 0.0 | 0.00 | 0.00 | 0.00 | 87 | 1015.3 | |
| 20260905043030 | 25 | 0.0 | 0.0 | 0.00 | 0.00 | 0.00 | 86 | 1015.2 | |
| 20260905041527 | 25 | 0.0 | 0.0 | 0.00 | 0.00 | 0.00 | 86 | 1015.1 | |
| 20260905040009 | 25 | 0.0 | 0.0 | 0.00 | 0.00 | 0.00 | 86 | 1015.1 | |
| 20260905034513 | 25 | 0.0 | 0.0 | 0.00 | 0.00 | 0.00 | 85 | 1015.1 | |
| 20260905033038 | 25 | 0.0 | 0.0 | 0.00 | 0.00 | 0.00 | 85 | 1015.1 |